Lid_Strength_Index
8 11 14 12 12 12 12 13 14 12 12 13 14 13 11 10 11 12 10 11 10 8 9 8 6 4 2 3 3 2 2 1 1 2 1 2 1 1 0 -0 -0 -0 -0 0
11 14 11 10 9 11 12 14 14 12 11 13 15 14 12 11 12 11 11 10 11 12 10 10 10 9 7 3 3 2 2 1 1 0 0 1 1 0 -0 -0 -0 -0 0 0
13 11 10 10 11 13 13 14 14 14 13 13 15 16 14 12 13 12 12 12 13 13 11 12 12 12 11 11 9 7 5 2 1 1 1 1 1 0 1 0 0 0 0 0
11 9 11 12 13 12 15 12 12 14 15 17 15 19 17 13 12 13 13 13 13 13 13 13 13 13 13 12 12 11 8 3 1 1 1 1 2 2 1 1 0 0 -0 0
13 11 12 12 12 11 13 11 13 13 16 18 17 19 18 15 13 15 13 13 14 14 14 15 15 14 14 13 13 13 9 8 7 4 2 1 2 1 1 1 1 1 1 0
11 9 10 10 10 10 11 12 13 14 16 20 18 19 19 18 15 15 13 14 14 15 15 15 15 15 15 14 14 13 12 11 10 8 7 6 4 2 2 2 2 1 1 1
13 12 10 9 11 10 11 14 19 21 22 22 19 20 19 15 15 14 13 15 15 15 16 16 16 16 15 15 15 13 13 14 12 11 10 10 8 6 5 4 3 2 3 6
17 17 12 9 11 13 13 14 19 25 24 21 18 20 18 14 14 15 15 15 15 16 16 17 17 17 16 16 16 15 14 14 13 12 12 11 10 9 9 9 8 8 9 9
15 16 10 9 9 10 12 15 14 19 23 21 19 18 15 14 15 15 16 16 16 17 17 17 17 18 18 17 17 16 15 14 14 13 11 12 12 12 12 11 10 10 9 9
13 16 11 10 9 9 11 11 16 18 24 24 20 19 18 16 15 15 16 17 17 17 18 18 18 18 18 18 17 17 16 16 15 13 12 12 12 12 12 12 13 12 12 11
12 14 14 11 13 14 13 15 15 15 17 22 22 20 14 14 14 14 15 16 16 17 18 18 18 18 18 18 18 17 17 17 16 15 14 14 14 13 13 13 13 14 13 13
11 14 16 14 10 10 11 13 14 17 19 19 18 18 12 12 13 13 13 14 16 17 18 19 18 18 19 18 18 18 18 17 16 16 15 15 15 15 15 15 15 15 15 15
11 17 19 16 14 12 14 12 12 13 14 18 19 18 11 11 12 12 12 13 15 16 18 18 18 19 19 19 19 18 18 17 17 16 16 16 16 16 17 17 16 16 16 16
10 14 19 20 17 15 14 13 13 15 19 16 16 16 13 12 12 12 12 12 13 15 15 16 17 18 18 18 18 18 17 17 17 17 17 17 17 17 17 17 17 17 16 16
12 16 15 16 16 15 16 13 13 17 19 18 15 15 13 12 13 12 12 13 14 14 15 16 16 17 16 16 17 16 16 16 15 16 16 17 17 17 17 17 17 17 16 16
12 18 16 17 16 15 17 15 15 17 15 16 17 16 12 12 12 12 12 12 13 13 15 15 15 15 15 16 17 16 17 16 15 16 16 16 16 16 16 16 17 17 17 16
15 19 20 22 19 18 21 17 14 14 14 16 17 14 13 13 13 12 12 12 12 12 13 14 15 15 15 16 16 17 17 16 16 16 16 16 16 16 16 16 16 16 16 16
16 20 21 22 22 25 17 17 17 15 14 14 14 14 14 14 14 13 12 12 12 13 13 14 15 16 16 16 17 17 17 17 17 17 17 17 17 17 17 16 16 16 16 16
14 20 25 23 29 23 19 17 17 17 17 14 14 16 15 14 13 13 13 13 13 13 13 14 15 16 17 17 17 18 18 18 18 18 18 18 17 18 18 17 17 17 16 16
15 17 20 31 28 28 19 17 15 15 21 15 15 15 15 13 16 15 14 14 14 13 14 15 16 16 17 17 17 18 18 18 19 19 18 18 18 18 18 18 18 17 17 17
28 27 27 27 30 24 18 15 14 22 18 15 14 14 14 14 13 12 14 14 14 15 15 15 16 16 16 16 17 17 18 18 18 18 18 18 18 18 18 18 18 18 17 17
22 25 30 30 29 25 16 15 16 14 14 13 13 13 13 13 13 14 14 14 14 15 15 15 15 15 16 16 16 17 17 17 18 18 18 18 18 17 17 17 18 18 18 18
22 19 22 20 19 16 16 14 13 12 12 13 13 12 12 13 15 16 16 17 17 16 15 16 16 16 16 15 15 16 17 17 18 17 18 19 18 17 17 18 18 18 18 19
18 19 18 18 17 16 16 15 13 13 13 12 12 12 12 14 16 16 18 18 18 19 19 19 17 17 17 14 14 13 15 16 17 18 19 19 19 19 19 18 18 18 19 20
17 16 18 17 16 17 16 16 14 14 15 15 16 15 14 15 14 15 16 18 19 19 21 20 17 17 17 16 14 14 15 16 17 19 20 20 20 20 20 20 19 18 19 18
16 16 16 16 13 13 13 15 16 15 15 14 15 17 18 16 13 16 16 18 19 18 20 19 18 18 18 19 18 20 19 18 19 20 20 20 20 21 21 21 21 17 16 15